Temp
-12 -12 -11 -12 -11 -11 -11 -11 -11 -11 -11 -11 -11 -11 -11 -11 -11 -11 -11 -10 -10 -10 -10 -10 -10 -10 -10 -10 -10 -10 -10 -10 -10 -10 -10 -11 -11 -10 -11 -11 -11 -11 -11 -11 -11 -11 -11
-12 -12 -12 -12 -12 -12 -12 -12 -12 -12 -12 -11 -11 -11 -11 -11 -11 -11 -11 -10 -10 -10 -10 -10 -10 -10 -10 -10 -10 -10 -10 -10 -10 -10 -10 -11 -11 -11 -11 -11 -11 -11 -11 -11 -11 -11 -11
-12 -12 -12 -12 -12 -12 -12 -12 -12 -12 -12 -12 -11 -11 -11 -11 -11 -11 -10 -10 -9 -9 -9 -9 -9 -10 -10 -10 -10 -10 -10 -10 -10 -10 -10 -10 -10 -11 -11 -11 -11 -11 -11 -11 -11 -11 -11
-12 -12 -12 -12 -12 -12 -12 -12 -12 -12 -12 -12 -12 -11 -11 -11 -11 -11 -10 -10 -9 -9 -9 -9 -9 -10 -10 -10 -10 -10 -10 -10 -10 -10 -11 -11 -11 -11 -11 -11 -10 -10 -11 -11 -11 -11 -11
-12 -12 -12 -12 -12 -12 -12 -12 -12 -12 -12 -12 -12 -12 -11 -11 -11 -11 -11 -10 -10 -9 -9 -10 -10 -10 -10 -10 -10 -10 -10 -10 -10 -11 -10 -10 -10 -10 -10 -10 -10 -10 -11 -11 -11 -11 -11
-11 -11 -11 -11 -11 -12 -12 -12 -12 -12 -12 -12 -12 -12 -12 -12 -12 -12 -11 -11 -10 -10 -10 -10 -10 -10 -10 -10 -10 -10 -11 -11 -11 -10 -10 -10 -10 -10 -10 -11 -11 -11 -11 -11 -11 -11 -11
-11 -11 -11 -11 -11 -11 -12 -12 -12 -12 -12 -12 -12 -12 -12 -12 -12 -12 -11 -11 -11 -11 -10 -10 -10 -11 -10 -10 -10 -11 -11 -11 -11 -11 -11 -11 -11 -11 -11 -11 -11 -11 -11 -12 -12 -12 -11
-12 -11 -11 -11 -11 -12 -12 -12 -12 -12 -12 -12 -12 -12 -12 -12 -12 -11 -11 -11 -11 -10 -10 -10 -10 -11 -11 -10 -11 -11 -11 -11 -11 -11 -11 -11 -11 -11 -11 -11 -11 -12 -11 -12 -12 -12 -12
-11 -12 -12 -12 -12 -12 -12 -12 -12 -12 -12 -12 -12 -12 -12 -12 -11 -11 -11 -11 -11 -11 -10 -11 -10 -11 -11 -11 -11 -11 -11 -11 -11 -11 -11 -11 -11 -11 -12 -12 -12 -12 -12 -12 -12 -12 -13
-11 -11 -11 -12 -12 -12 -12 -12 -12 -12 -12 -12 -12 -12 -12 -12 -11 -11 -11 -10 -10 -10 -10 -11 -11 -11 -11 -11 -11 -11 -12 -12 -12 -12 -12 -12 -12 -12 -12 -12 -12 -12 -13 -13 -13 -12 -12
-11 -11 -11 -11 -11 -12 -12 -12 -12 -12 -12 -12 -12 -12 -12 -12 -11 -11 -11 -10 -10 -10 -10 -10 -11 -11 -11 -11 -11 -11 -12 -12 -12 -12 -12 -12 -12 -13 -13 -13 -13 -13 -13 -13 -13 -13 -13
-11 -11 -11 -11 -11 -11 -12 -12 -12 -12 -12 -12 -12 -12 -12 -11 -11 -11 -11 -11 -11 -11 -11 -11 -11 -11 -12 -12 -12 -12 -12 -12 -13 -13 -13 -13 -13 -13 -14 -14 -14 -14 -14 -14 -14 -14 -14
-11 -11 -11 -12 -12 -12 -12 -12 -12 -12 -12 -12 -12 -12 -12 -12 -12 -11 -11 -11 -11 -11 -11 -11 -12 -12 -12 -12 -12 -12 -13 -13 -13 -13 -14 -13 -14 -14 -15 -15 -15 -15 -15 -15 -15 -15 -15
-12 -11 -11 -11 -12 -12 -12 -12 -12 -12 -12 -12 -12 -12 -12 -12 -12 -12 -12 -12 -11 -12 -12 -12 -12 -12 -12 -13 -13 -13 -13 -13 -14 -14 -14 -14 -14 -15 -15 -15 -15 -15 -15 -16 -16 -16 -16
-12 -12 -12 -12 -11 -12 -12 -12 -12 -12 -12 -12 -12 -12 -13 -13 -12 -13 -12 -12 -12 -12 -12 -12 -12 -12 -13 -13 -13 -13 -13 -14 -14 -15 -15 -15 -15 -15 -15 -15 -16 -16 -16 -16 -17 -17 -17
-12 -12 -12 -12 -12 -12 -12 -12 -12 -12 -12 -12 -13 -13 -13 -13 -13 -13 -13 -13 -13 -13 -13 -13 -13 -13 -13 -14 -14 -14 -14 -14 -14 -15 -15 -15 -15 -15 -16 -16 -16 -16 -17 -17 -18 -18 -18
-13 -12 -13 -13 -12 -12 -12 -12 -12 -12 -12 -13 -13 -13 -13 -13 -13 -13 -13 -13 -13 -13 -13 -13 -13 -13 -13 -14 -14 -14 -14 -15 -15 -15 -16 -16 -16 -16 -16 -16 -16 -17 -17 -17 -18 -18 -19
-12 -12 -12 -12 -12 -12 -12 -12 -12 -12 -12 -12 -13 -13 -13 -13 -13 -13 -13 -13 -13 -13 -14 -13 -14 -14 -14 -14 -15 -15 -15 -16 -16 -16 -16 -17 -17 -17 -17 -17 -17 -17 -18 -18 -19 -19 -19
-13 -13 -13 -13 -13 -13 -13 -12 -12 -12 -12 -12 -12 -12 -13 -13 -13 -13 -13 -13 -13 -14 -14 -14 -14 -14 -15 -15 -15 -15 -16 -16 -16 -16 -16 -17 -17 -18 -18 -18 -17 -17 -18 -18 -18 -19 -19
-13 -13 -13 -13 -13 -13 -13 -13 -12 -12 -12 -12 -12 -12 -13 -13 -13 -13 -13 -13 -13 -14 -14 -15 -15 -15 -15 -16 -16 -16 -16 -16 -17 -17 -17 -17 -18 -19 -19 -19 -18 -19 -19 -20 -21 -21 -22
-13 -14 -14 -14 -13 -14 -13 -13 -13 -13 -13 -13 -13 -12 -13 -13 -13 -13 -13 -13 -14 -14 -14 -15 -15 -16 -16 -16 -16 -17 -17 -17 -17 -18 -18 -18 -19 -18 -18 -19 -19 -19 -20 -21 -22 -24 -25
-13 -13 -14 -14 -14 -14 -14 -14 -14 -14 -13 -13 -13 -13 -13 -13 -13 -13 -13 -14 -14 -14 -14 -15 -15 -16 -16 -17 -17 -18 -18 -18 -18 -18 -18 -18 -18 -18 -18 -19 -19 -20 -21 -23 -24 -25 -27
-14 -14 -14 -14 -14 -14 -14 -14 -14 -14 -13 -14 -14 -14 -13 -13 -13 -13 -14 -14 -14 -15 -15 -15 -16 -16 -17 -17 -18 -18 -18 -18 -18 -18 -18 -18 -18 -18 -18 -19 -20 -20 -23 -25 -26 -28 -30
-16 -15 -15 -15 -15 -15 -14 -14 -14 -14 -14 -14 -14 -14 -14 -14 -14 -15 -14 -15 -15 -15 -16 -16 -17 -17 -17 -18 -18 -18 -19 -19 -18 -19 -19 -19 -19 -19 -20 -21 -21 -22 -25 -27 -29 -31 -32
-16 -16 -16 -16 -16 -15 -15 -15 -15 -15 -14 -14 -15 -15 -14 -14 -15 -15 -15 -15 -15 -16 -16 -17 -17 -17 -18 -18 -19 -19 -18 -19 -19 -19 -19 -19 -20 -21 -22 -23 -24 -25 -28 -29 -31 -32 -33
-18 -16 -17 -17 -17 -17 -16 -16 -15 -15 -15 -15 -15 -15 -15 -15 -15 -15 -15 -16 -16 -17 -17 -17 -18 -18 -19 -19 -19 -19 -19 -19 -19 -19 -19 -20 -21 -22 -24 -26 -27 -28 -30 -32 -32 -32 -33
-18 -18 -18 -17 -16 -16 -16 -16 -16 -16 -15 -15 -16 -16 -15 -15 -15 -15 -16 -16 -17 -17 -17 -18 -18 -19 -19 -19 -19 -19 -19 -19 -19 -20 -21 -21 -23 -24 -27 -29 -30 -31 -32 -33 -33 -34 -34
-18 -19 -19 -17 -16 -17 -16 -16 -16 -17 -17 -16 -16 -16 -16 -16 -16 -16 -16 -17 -18 -18 -18 -19 -19 -19 -19 -19 -19 -19 -19 -20 -20 -21 -22 -24 -25 -27 -28 -30 -31 -33 -34 -34 -34 -34 -34
-19 -19 -19 -18 -17 -18 -17 -17 -17 -17 -17 -16 -16 -17 -17 -17 -16 -17 -17 -18 -19 -19 -19 -19 -19 -19 -19 -19 -19 -19 -20 -20 -21 -22 -25 -26 -28 -30 -32 -32 -33 -34 -34 -34 -34 -34 -34
Height
5825 5827 5827 5828 5829 5830 5830 5830 5830 5829 5830 5830 5830 5830 5829 5828 5827 5826 5825 5825 5825 5826 5826 5827 5828 5829 5829 5829 5827 5826 5825 5823 5822 5821 5820 5819 5818 5816 5815 5814 5814 5813 5813 5813 5812 5811 5811
5823 5824 5826 5827 5828 5828 5828 5828 5828 5828 5828 5828 5828 5828 5826 5826 5825 5824 5824 5823 5824 5825 5826 5827 5827 5827 5827 5826 5824 5823 5821 5820 5819 5817 5816 5815 5814 5813 5812 5812 5811 5810 5809 5809 5808 5807 5807
5821 5822 5822 5824 5825 5826 5826 5826 5826 5826 5826 5825 5825 5825 5824 5824 5823 5822 5822 5822 5823 5824 5825 5825 5824 5824 5823 5823 5821 5820 5818 5816 5814 5812 5811 5810 5809 5809 5808 5807 5806 5806 5806 5804 5803 5802 5802
5818 5819 5819 5820 5821 5821 5822 5823 5823 5824 5823 5823 5823 5822 5821 5821 5820 5819 5819 5819 5820 5821 5821 5821 5820 5819 5818 5818 5817 5815 5813 5811 5809 5808 5807 5806 5805 5804 5803 5803 5801 5801 5801 5800 5799 5798 5797
5815 5816 5817 5817 5818 5818 5819 5819 5820 5820 5820 5820 5820 5820 5819 5818 5817 5816 5815 5815 5815 5816 5816 5816 5816 5815 5815 5813 5811 5809 5807 5805 5804 5803 5802 5802 5801 5800 5800 5800 5799 5798 5797 5796 5794 5793 5792
5812 5813 5814 5814 5815 5814 5815 5816 5816 5816 5816 5817 5817 5817 5816 5816 5814 5813 5811 5811 5810 5811 5812 5813 5813 5814 5812 5810 5807 5805 5803 5802 5800 5799 5798 5798 5797 5796 5795 5794 5794 5792 5791 5791 5789 5788 5785
5809 5811 5812 5813 5813 5813 5813 5813 5812 5812 5813 5813 5813 5813 5812 5811 5810 5810 5809 5808 5810 5810 5810 5811 5810 5809 5807 5805 5803 5801 5799 5797 5796 5795 5795 5794 5793 5792 5791 5790 5788 5787 5786 5785 5783 5779 5777
5806 5807 5808 5810 5811 5810 5810 5810 5810 5810 5809 5810 5809 5809 5808 5807 5806 5805 5806 5806 5806 5807 5807 5805 5805 5803 5801 5799 5798 5796 5795 5793 5792 5791 5789 5789 5786 5785 5783 5782 5781 5780 5778 5777 5775 5771 5768
5802 5804 5805 5806 5807 5807 5807 5807 5807 5806 5806 5806 5805 5805 5804 5803 5802 5802 5802 5803 5802 5802 5802 5801 5799 5798 5797 5795 5792 5790 5789 5787 5786 5785 5783 5781 5781 5779 5777 5776 5775 5772 5770 5767 5766 5763 5759
5798 5799 5800 5801 5802 5802 5802 5803 5802 5802 5802 5800 5800 5799 5799 5798 5799 5797 5797 5797 5797 5797 5797 5798 5796 5794 5793 5790 5788 5785 5783 5783 5780 5778 5776 5774 5772 5769 5768 5766 5764 5762 5759 5756 5753 5751 5748
5795 5794 5795 5796 5796 5797 5797 5797 5797 5797 5797 5797 5796 5795 5793 5792 5792 5792 5792 5790 5790 5791 5790 5790 5789 5787 5786 5785 5782 5780 5778 5776 5773 5771 5770 5766 5763 5761 5759 5756 5753 5752 5747 5744 5741 5737 5734
5791 5792 5792 5792 5792 5792 5792 5792 5792 5792 5792 5791 5790 5789 5788 5787 5787 5786 5785 5784 5785 5786 5783 5783 5781 5779 5778 5775 5773 5771 5770 5767 5765 5762 5760 5757 5754 5751 5748 5745 5742 5739 5735 5731 5727 5723 5718
5785 5787 5788 5788 5788 5788 5787 5787 5787 5786 5786 5786 5785 5784 5783 5781 5781 5780 5779 5779 5780 5778 5777 5776 5774 5772 5770 5768 5765 5763 5761 5758 5756 5753 5750 5746 5743 5740 5738 5733 5730 5726 5721 5716 5713 5708 5704
5779 5780 5781 5782 5782 5783 5783 5782 5782 5781 5781 5780 5779 5778 5777 5776 5775 5774 5773 5773 5772 5771 5769 5767 5766 5764 5763 5760 5757 5754 5751 5749 5747 5743 5739 5735 5731 5730 5726 5723 5718 5713 5710 5704 5694 5694 5690
5772 5774 5775 5776 5776 5776 5776 5777 5776 5776 5775 5774 5773 5772 5772 5771 5770 5769 5768 5766 5765 5763 5762 5760 5758 5755 5754 5751 5748 5744 5742 5740 5737 5733 5730 5723 5720 5717 5714 5709 5705 5700 5696 5689 5680 5677 5670
5765 5766 5768 5768 5769 5770 5770 5770 5770 5770 5769 5768 5767 5766 5765 5765 5764 5763 5762 5760 5757 5756 5754 5752 5750 5747 5744 5742 5738 5734 5730 5730 5724 5721 5716 5712 5707 5705 5701 5695 5691 5686 5681 5675 5668 5657 5649
5756 5757 5758 5760 5761 5762 5763 5763 5763 5763 5763 5762 5760 5760 5758 5757 5757 5756 5755 5753 5751 5749 5747 5745 5742 5738 5735 5732 5728 5723 5720 5718 5713 5708 5703 5698 5694 5691 5686 5682 5677 5672 5665 5658 5649 5640 5629
5746 5747 5750 5750 5752 5754 5754 5755 5755 5756 5756 5755 5754 5752 5752 5750 5749 5748 5747 5745 5744 5741 5738 5734 5730 5727 5724 5721 5716 5711 5709 5704 5699 5695 5690 5686 5679 5677 5672 5667 5663 5658 5651 5643 5631 5624 5613
5735 5736 5738 5740 5742 5744 5744 5745 5746 5747 5747 5746 5746 5744 5744 5742 5740 5739 5737 5735 5733 5731 5727 5723 5720 5716 5712 5708 5703 5699 5696 5692 5687 5682 5676 5672 5666 5662 5657 5655 5650 5643 5633 5622 5613 5602 5593
5725 5727 5728 5729 5731 5733 5733 5734 5735 5736 5737 5737 5737 5736 5735 5732 5730 5729 5727 5724 5722 5719 5716 5711 5707 5704 5699 5695 5691 5686 5683 5678 5673 5668 5662 5656 5653 5649 5644 5638 5633 5625 5615 5604 5594 5581 5572
5714 5717 5719 5719 5720 5721 5722 5723 5723 5724 5725 5727 5726 5727 5726 5723 5722 5719 5716 5714 5710 5707 5704 5699 5696 5691 5686 5682 5677 5672 5669 5665 5660 5654 5649 5643 5639 5635 5629 5621 5613 5604 5595 5587 5573 5562 5546
5700 5703 5708 5710 5709 5709 5711 5710 5713 5713 5714 5715 5714 5713 5713 5713 5711 5709 5705 5703 5698 5694 5692 5688 5684 5679 5674 5671 5666 5661 5656 5651 5648 5643 5636 5630 5623 5617 5612 5603 5593 5584 5575 5563 5552 5541 5530
5689 5692 5695 5697 5699 5699 5700 5699 5700 5701 5703 5703 5703 5702 5701 5701 5699 5696 5694 5690 5686 5682 5679 5675 5670 5666 5662 5658 5654 5649 5645 5640 5635 5630 5623 5616 5608 5599 5593 5583 5573 5564 5553 5542 5532 5524 5515
5677 5680 5682 5687 5687 5688 5689 5690 5690 5690 5690 5691 5691 5690 5689 5689 5686 5683 5681 5677 5674 5671 5666 5662 5658 5654 5651 5646 5641 5637 5632 5628 5622 5615 5609 5599 5589 5579 5571 5560 5552 5542 5533 5524 5516 5510 5503
5665 5669 5670 5673 5674 5677 5678 5680 5679 5679 5679 5678 5677 5678 5677 5676 5673 5671 5668 5666 5662 5657 5654 5649 5647 5644 5639 5636 5630 5626 5622 5616 5609 5601 5593 5583 5570 5558 5548 5538 5530 5524 5516 5510 5502 5499 5491
5654 5659 5657 5663 5664 5664 5666 5669 5668 5668 5667 5667 5666 5665 5666 5664 5663 5660 5657 5653 5649 5645 5641 5638 5635 5630 5628 5624 5619 5613 5608 5601 5593 5585 5576 5564 5552 5541 5529 5516 5509 5507 5501 5495 5488 5486 5478
5641 5647 5650 5654 5655 5657 5655 5656 5658 5658 5656 5656 5655 5654 5653 5653 5651 5649 5645 5641 5638 5634 5630 5627 5624 5620 5617 5613 5607 5601 5595 5587 5577 5568 5557 5545 5534 5524 5511 5501 5495 5490 5486 5481 5477 5474 5467
5629 5636 5639 5644 5645 5646 5648 5648 5646 5649 5649 5648 5645 5643 5645 5643 5641 5636 5633 5629 5627 5624 5621 5619 5616 5611 5606 5601 5594 5587 5580 5571 5560 5548 5537 5526 5514 5507 5499 5493 5488 5482 5476 5472 5467 5461 5457
5620 5623 5629 5632 5633 5635 5640 5636 5636 5640 5641 5639 5636 5634 5633 5632 5630 5627 5622 5618 5615 5614 5613 5610 5606 5600 5593 5586 5580 5571 5563 5552 5541 5532 5520 5510 5500 5492 5486 5481 5476 5473 5468 5463 5457 5453 5449
Wind_Speed
11 11 11 11 11 10 9 8 8 8 8 9 10 11 12 13 13 12 8 7 8 8 6 3 1 4 6 10 12 13 13 14 15 16 15 15 14 14 14 15 15 16 16 15 16 18 18
13 13 13 13 12 12 12 11 10 11 11 12 12 12 13 13 12 9 7 5 8 7 5 3 3 6 10 12 12 14 15 18 19 20 19 17 16 16 16 16 17 18 18 19 20 20 19
14 14 14 14 13 13 14 13 13 14 14 14 13 13 13 13 12 7 6 6 10 7 6 6 7 9 11 13 16 18 20 24 23 20 18 17 16 17 18 17 17 15 16 17 18 19 18
15 15 14 14 13 14 14 14 15 15 16 16 15 14 14 13 12 8 7 8 12 10 10 10 12 13 13 15 18 21 24 24 20 19 18 17 16 16 16 13 13 15 15 17 19 19 18
13 14 14 15 14 14 13 14 14 16 17 16 16 16 17 15 14 14 12 12 16 16 16 16 14 15 16 18 21 24 22 20 20 18 17 14 12 13 13 14 16 18 17 18 18 19 20
12 13 14 15 14 14 13 14 15 15 15 15 16 17 18 17 17 16 15 16 18 20 17 15 16 18 19 23 24 21 19 19 17 15 15 13 12 14 17 19 20 21 20 20 20 22 25
12 12 12 13 13 14 13 14 13 13 14 15 16 17 19 19 17 18 16 18 18 16 17 17 18 18 20 23 21 22 21 20 18 15 14 15 16 19 22 23 24 24 24 22 25 28 31
13 13 14 14 14 14 14 15 15 14 14 15 17 18 20 21 19 18 17 17 17 18 17 19 20 20 21 23 24 22 21 17 18 18 18 19 21 24 26 26 26 27 28 30 31 32 36
11 14 15 15 15 15 16 16 17 17 17 17 18 20 21 20 20 21 20 21 21 21 20 21 22 22 25 24 25 24 22 23 20 21 21 24 26 29 30 31 33 34 34 35 37 36 38
12 13 14 15 16 17 18 18 18 19 20 19 19 20 22 22 22 22 23 23 24 24 23 24 24 25 26 26 27 25 24 23 23 25 27 28 30 31 33 36 38 38 39 40 41 43 45
16 15 15 16 16 17 18 19 19 20 20 21 22 21 22 23 23 22 23 23 24 26 27 27 26 27 27 27 26 26 27 27 29 30 31 35 35 36 37 39 40 40 42 44 45 47 50
20 18 18 18 18 19 20 20 20 21 21 21 21 21 21 22 23 23 23 24 26 25 27 28 30 27 28 29 28 27 30 32 34 33 35 38 40 40 41 41 42 45 46 47 49 51 55
22 21 21 21 21 22 22 21 22 22 23 23 23 21 21 21 22 23 25 26 26 26 30 31 31 32 31 32 32 34 34 35 36 38 38 41 43 43 43 45 47 47 49 50 52 54 57
26 24 23 24 24 25 25 24 24 24 25 25 23 22 21 20 19 20 21 23 25 27 30 32 34 36 35 36 36 37 38 38 38 40 42 44 46 46 46 46 48 49 49 51 56 56 57
29 27 27 28 29 28 29 28 27 27 26 26 25 24 24 22 22 22 24 23 25 27 30 32 35 39 38 39 42 41 41 40 39 41 44 47 49 50 49 50 51 52 53 55 57 60 64
34 33 32 32 32 32 32 31 30 29 29 27 27 28 28 24 24 23 24 25 27 28 30 33 34 39 41 42 44 45 47 45 45 46 48 50 52 51 51 54 54 54 56 57 59 64 69
40 39 34 36 35 34 34 33 33 32 32 32 30 31 29 29 29 28 28 30 31 32 34 37 38 41 42 44 46 49 49 49 49 49 51 52 53 53 53 54 54 57 60 62 66 70 74
44 46 40 37 36 37 37 38 37 36 35 34 34 36 33 33 34 33 34 36 38 38 39 41 43 45 46 47 49 50 51 51 52 52 53 54 56 54 54 55 57 59 63 67 70 74 78
48 48 45 41 41 41 41 42 38 39 39 38 39 38 37 35 37 37 40 42 45 43 45 46 48 48 48 49 50 51 51 52 53 54 56 54 56 54 56 58 61 64 69 73 78 81 84
50 46 45 47 45 45 48 47 46 46 46 43 43 41 40 39 39 40 42 44 47 50 49 48 48 49 51 50 51 53 53 53 53 54 56 56 54 53 57 61 64 68 73 76 78 81 79
53 48 46 47 47 48 50 50 48 47 45 45 42 43 41 42 42 44 45 47 49 51 51 49 49 49 49 50 52 50 49 51 52 51 52 53 53 57 62 66 70 74 77 76 77 76 76
65 61 46 45 44 45 48 47 51 51 51 51 48 45 44 45 46 48 48 48 49 48 47 48 48 48 49 49 48 50 50 47 48 48 50 53 58 62 67 71 75 77 76 75 73 70 66
61 64 59 46 42 42 46 50 49 49 49 50 49 47 49 49 49 50 48 46 47 48 49 49 51 50 48 46 46 45 45 46 47 49 54 58 63 68 72 74 76 79 74 70 65 59 54
56 57 60 55 43 41 44 49 53 52 50 50 50 48 50 52 50 50 51 53 51 50 50 51 49 45 43 44 41 42 44 48 51 55 59 64 68 72 74 75 78 76 66 59 53 49 49
55 51 56 51 55 51 45 43 44 45 47 46 44 47 45 43 46 50 51 51 51 48 47 46 45 44 42 40 42 45 48 52 56 61 64 67 70 73 73 72 72 64 56 50 48 46 43
48 37 43 44 42 48 52 44 38 40 42 43 42 41 43 41 45 47 48 47 47 45 45 44 41 38 38 40 44 48 53 57 62 65 68 70 72 72 65 63 62 54 47 44 45 42 41
54 51 38 33 34 35 34 41 37 36 35 36 37 39 39 42 43 44 42 41 42 42 41 37 35 36 39 43 48 52 57 60 65 68 69 68 67 63 56 54 51 47 44 44 44 43 41
51 43 38 39 36 33 34 26 17 22 30 30 25 24 29 35 40 38 40 37 36 35 35 34 37 39 43 48 52 56 59 64 67 68 66 64 61 56 51 47 44 42 42 43 43 42 38
59 46 50 55 52 53 54 41 61 54 33 33 37 46 50 53 51 44 39 32 31 30 33 35 40 44 48 52 55 59 62 67 67 65 58 55 52 48 43 41 39 40 41 40 40 36 34
Wind_Direction
227 233 237 243 250 258 266 271 272 276 282 283 284 293 302 314 319 314 304 284 197 184 173 174 229 317 324 328 324 325 324 320 315 311 305 303 297 292 291 292 292 295 295 294 291 292 292
228 234 243 249 255 260 265 273 277 279 280 282 285 294 302 314 312 313 313 265 196 197 201 226 282 296 312 314 314 313 310 309 307 303 298 291 288 286 282 281 284 287 291 292 293 293 292
237 237 238 244 255 263 269 273 273 274 276 280 283 291 302 309 303 307 311 226 203 211 235 252 262 282 291 303 309 310 309 312 304 297 292 288 286 285 283 282 280 278 281 284 285 285 285
237 243 243 242 246 257 264 269 274 277 279 280 282 286 296 299 292 282 270 219 211 222 235 246 256 268 290 303 307 307 305 305 300 295 289 289 289 285 284 281 276 279 283 282 281 282 283
240 242 248 252 253 256 260 268 276 282 281 278 279 282 289 293 285 273 256 213 212 223 234 246 266 279 293 301 305 307 303 297 297 294 293 292 291 287 288 289 288 290 290 284 281 280 284
245 248 252 250 250 254 261 268 277 277 278 278 280 283 288 294 295 286 262 235 221 232 246 263 275 291 302 309 308 306 301 298 296 295 288 285 284 285 289 291 288 288 288 287 284 285 285
245 248 248 255 258 263 268 271 274 278 280 282 285 287 290 291 294 291 272 253 249 253 260 274 284 291 301 309 308 303 298 294 289 286 287 289 289 291 295 294 293 291 292 289 284 285 288
240 245 250 254 255 257 264 271 275 274 277 283 284 287 289 290 285 279 275 267 262 261 269 279 286 290 302 309 306 301 295 288 287 282 280 283 284 289 291 289 288 289 289 288 286 284 288
255 252 248 251 258 261 266 270 273 272 276 282 286 288 289 289 284 275 272 270 266 271 276 280 287 289 299 307 306 297 288 287 283 277 278 279 287 291 290 291 290 286 284 282 282 281 282
248 255 260 258 258 261 264 268 270 274 277 277 280 286 291 292 287 280 276 271 272 275 279 284 288 293 297 306 308 300 288 286 282 279 280 280 282 282 283 284 283 281 281 281 281 283 283
254 252 257 259 261 262 264 267 272 276 280 285 286 287 289 290 289 286 277 273 272 275 282 286 287 291 295 301 307 302 291 285 283 281 282 283 284 284 283 282 281 281 280 281 282 282 283
257 260 263 264 264 264 266 269 272 276 279 282 286 288 292 293 290 285 282 278 276 280 283 284 288 288 291 294 298 300 295 289 284 282 282 283 284 284 284 284 284 284 283 283 283 283 284
255 262 267 270 272 271 269 270 273 274 278 281 286 287 291 289 287 287 285 284 283 283 285 286 288 289 289 293 296 301 297 289 284 283 282 283 283 284 286 286 287 287 287 286 284 284 285
254 257 263 269 272 274 276 273 273 275 278 280 281 284 289 295 295 293 291 289 288 285 281 283 286 288 289 292 293 295 298 293 289 285 284 284 284 285 285 286 287 287 287 287 286 287 289
255 259 262 268 271 270 270 273 273 274 274 276 279 281 288 289 290 292 291 292 291 285 284 286 288 288 289 290 290 292 295 294 292 288 284 284 285 287 289 290 291 290 290 290 292 292 290
257 261 263 265 267 271 271 270 273 274 274 274 274 279 285 288 290 291 293 294 293 293 294 295 294 293 293 290 289 290 292 295 293 290 287 288 289 289 290 290 291 291 292 294 294 293 292
250 257 262 265 265 268 269 269 272 275 276 275 272 275 278 284 288 288 293 292 293 295 297 296 295 295 294 292 290 290 292 294 293 291 289 289 290 291 291 291 293 294 296 296 295 295 295
253 254 261 260 260 263 267 268 269 271 273 276 277 277 277 279 283 287 291 291 293 294 293 293 294 293 294 292 290 289 292 292 292 291 290 290 291 292 292 293 294 296 296 295 294 295 294
253 254 260 257 259 261 265 265 267 268 269 273 278 278 281 278 282 287 289 292 292 291 289 292 292 291 291 288 287 289 290 290 290 290 289 289 290 290 293 296 297 298 297 297 297 298 297
247 250 260 262 265 266 264 263 263 267 266 270 278 282 279 278 282 289 291 292 295 294 292 291 290 289 289 288 288 289 288 288 290 290 288 288 290 297 298 298 297 297 297 297 297 295 295
245 255 256 259 262 262 262 263 263 261 263 271 277 280 282 283 283 289 291 293 292 291 291 290 289 289 289 289 289 290 290 290 290 290 290 295 300 298 298 298 299 298 299 299 296 295 293
251 253 255 260 258 257 258 261 258 258 263 269 271 273 277 281 284 288 290 291 288 289 292 292 290 288 289 290 289 290 291 291 293 295 298 298 297 298 299 300 300 301 301 298 297 295 292
255 258 262 253 252 255 256 258 261 262 264 269 269 271 275 276 281 284 287 288 288 289 291 289 288 287 289 290 290 292 293 295 298 298 298 299 301 301 302 302 303 302 301 299 297 295 296
246 256 256 256 255 262 264 262 260 261 263 264 268 271 275 280 282 283 283 285 288 290 290 289 288 290 290 291 292 294 296 296 298 300 302 303 303 304 304 304 303 303 301 298 296 297 298
249 246 260 261 265 259 257 264 266 260 262 263 266 272 276 280 279 280 281 285 288 289 287 286 287 290 291 292 297 298 299 300 302 304 305 305 305 305 303 302 302 301 299 296 297 300 301
239 246 256 266 270 267 263 271 266 265 265 269 271 269 277 281 281 283 285 286 286 285 284 286 286 287 293 298 299 300 303 305 306 306 306 306 306 305 303 299 299 302 299 300 302 305 302
239 249 247 254 248 256 252 256 259 264 266 270 273 273 276 283 285 286 285 285 285 284 284 283 288 295 297 298 301 304 306 307 306 306 307 306 306 304 302 299 299 302 302 304 305 306 307
239 228 241 234 246 250 254 256 258 286 292 277 278 297 294 292 291 284 283 285 284 282 284 290 294 296 298 301 305 307 308 308 308 309 309 307 306 304 299 297 299 301 303 302 304 306 305
232 245 251 250 246 254 252 266 271 274 281 278 282 291 295 294 297 288 281 277 277 283 291 294 296 300 304 307 308 310 310 311 311 310 308 304 302 301 299 300 300 299 299 302 303 303 302